Weather History for Billings, MT

Change the Weather History Date:

Saturday, May 4, 2013

  Actual Average Record
Temperature  
Mean Temperature 50 °F 52 °F  
Max Temperature 58 °F 64 °F 87 °F (1936)
Min Temperature 42 °F 40 °F 21 °F (1967)
Degree Days  
Heating Degree Days 15 13  
Month to date heating degree days 67 55  
Since 1 July heating degree days 6159 6432  
Cooling Degree Days 0 0  
Month to date cooling degree days 0 0  
Year to date cooling degree days 0 1  
Moisture  
Dew Point 39 °F    
Average Humidity 65    
Maximum Humidity 86    
Minimum Humidity 43    
Precipitation  
Precipitation T in 0.06 in 1.33 in (1980)
Month to date precipitation 0.02 0.25  
Year to date precipitation 2.18 3.93  
Snow  
Snow 0.00 in 0.10 in 0.70 in (1950)
Month to date snowfall T 0.5  
Since 1 July snowfall 40.4 53.5  
Snow Depth 0.00 in    
Sea Level Pressure  
Sea Level Pressure 30.23 in    
Wind  
Wind Speed 7 mph (North)    
Max Wind Speed 24 mph    
Max Gust Speed 27 mph    
Visibility 10 miles    
Events Rain    
T = Trace of Precipitation, MM = Missing Value Source: NWS Daily Summary

Daily Weather History Graph

Daily Weather History Graph

Search for Another Location

Airport:

Trip Planner

Search our weather history database for the weather conditions in past years. The results will help you decide how hot, cold, wet, or windy it might be!

Date:

Astronomy

May. 04, 2013 Rise Set
Actual Time 5:56 AM MDT 8:25 PM MDT
Civil Twilight 5:23 AM MDT 8:59 PM MDT
Nautical Twilight 4:41 AM MDT 9:41 PM MDT
Astronomical Twilight 3:53 AM MDT 10:29 PM MDT
Moon 3:13 AM MDT (5/4) 3:12 PM MDT (5/4)
Length of Visible Light 15h 36m
Length of Day
14h 29m
Waning Crescent, 26% of the Moon is Illuminated
May 4
Waning Crescent
May 9
New
May 17
First Quarter
May 24
Full
May 31
Last Quarter

Hourly Weather History & Observations

Time (MDT) Temp. Windchill Dew Point Humidity Pressure Visibility Wind Dir Wind Speed Gust Speed Precip Events Conditions
12:53 AM 46.0 °F 42.5 °F 42.1 °F 86% 30.19 in 10.0 mi North 6.9 mph - 0.00 in   Light Drizzle
1:53 AM 46.0 °F 41.9 °F 41.0 °F 83% 30.19 in 10.0 mi North 8.1 mph - 0.00 in   Overcast
2:53 AM 46.0 °F 42.5 °F 41.0 °F 83% 30.19 in 10.0 mi NNW 6.9 mph - N/A   Overcast
3:53 AM 45.0 °F 40.1 °F 41.0 °F 86% 30.19 in 10.0 mi NNW 9.2 mph - 0.00 in   Light Drizzle
4:53 AM 45.0 °F 41.2 °F 41.0 °F 86% 30.20 in 10.0 mi North 6.9 mph - 0.00 in Rain Light Rain
5:53 AM 44.1 °F 42.5 °F 42.1 °F 93% 30.22 in 10.0 mi North 3.5 mph - 0.00 in   Light Drizzle
6:15 AM 44.1 °F 41.5 °F 41.0 °F 89% 30.23 in 10.0 mi NNW 4.6 mph - 0.00 in   Light Drizzle
6:53 AM 44.1 °F 41.5 °F 42.1 °F 93% 30.23 in 10.0 mi NNW 4.6 mph - 0.00 in   Overcast
7:53 AM 45.0 °F 42.6 °F 42.1 °F 90% 30.25 in 10.0 mi NNW 4.6 mph - 0.00 in   Light Drizzle
8:45 AM 46.0 °F 43.1 °F 43.0 °F 89% 30.25 in 10.0 mi North 5.8 mph - 0.00 in   Overcast
8:53 AM 46.0 °F 42.5 °F 43.0 °F 89% 30.26 in 10.0 mi North 6.9 mph - 0.00 in   Overcast
9:18 AM 46.9 °F - 43.0 °F 86% 30.25 in 10.0 mi NNE 5.8 mph - N/A   Overcast
9:44 AM 46.9 °F - 43.0 °F 86% 30.25 in 10.0 mi NNE 3.5 mph - N/A   Overcast
9:53 AM 46.9 °F - 43.0 °F 86% 30.27 in 10.0 mi NNW 4.6 mph - N/A   Overcast
10:53 AM 50.0 °F - 43.0 °F 77% 30.28 in 10.0 mi Variable 3.5 mph - N/A   Mostly Cloudy
11:53 AM 52.0 °F - 42.1 °F 69% 30.27 in 10.0 mi NNE 9.2 mph - N/A   Overcast
12:53 PM 55.9 °F - 41.0 °F 57% 30.25 in 10.0 mi Variable 4.6 mph - N/A   Mostly Cloudy
1:53 PM 54.0 °F - 41.0 °F 62% 30.24 in 10.0 mi West 9.2 mph - N/A   Mostly Cloudy
2:53 PM 57.9 °F - 37.0 °F 46% 30.21 in 10.0 mi North 13.8 mph 20.7 mph N/A   Mostly Cloudy
3:53 PM 57.0 °F - 36.0 °F 45% 30.20 in 10.0 mi North 6.9 mph - N/A   Mostly Cloudy
4:53 PM 57.0 °F - 39.0 °F 51% 30.22 in 10.0 mi East 16.1 mph - N/A   Mostly Cloudy
5:53 PM 55.9 °F - 37.0 °F 49% 30.22 in 10.0 mi East 11.5 mph - N/A   Scattered Clouds
6:53 PM 55.9 °F - 35.1 °F 45% 30.23 in 10.0 mi East 13.8 mph - N/A   Partly Cloudy
7:53 PM 53.1 °F - 35.1 °F 50% 30.24 in 10.0 mi East 11.5 mph - N/A   Partly Cloudy
8:53 PM 51.1 °F - 34.0 °F 52% 30.24 in 10.0 mi ENE 3.5 mph - N/A   Partly Cloudy
9:53 PM 50.0 °F - 34.0 °F 54% 30.25 in 10.0 mi NNE 3.5 mph - N/A   Scattered Clouds
10:53 PM 46.9 °F - 33.1 °F 59% 30.24 in 10.0 mi North 4.6 mph - N/A   Partly Cloudy
11:53 PM 44.1 °F 40.8 °F 33.1 °F 65% 30.25 in 10.0 mi North 5.8 mph - N/A   Partly Cloudy